Marion, SC

5:42 PM EST on December 02, 2016 (GMT -0500)
Marion County

Weather History for KMAO - October, 2013

Change the Weather History Date:

Saturday, October 26, 2013

  Actual Average (KFLO) Record (KFLO)
Temperature  
Mean Temperature 47 °F 61 °F  
Max Temperature 62 °F 73 °F 87 °F (1974)
Min Temperature 32 °F 50 °F 29 °F (2013)
Degree Days  
Heating Degree Days 18 5  
Month to date heating degree days 77  
Since 1 July heating degree days 86  
Cooling Degree Days 0 1  
Month to date cooling degree days 79  
Year to date cooling degree days 2035  
Moisture  
Dew Point 33 °F    
Average Humidity 66    
Maximum Humidity 100    
Minimum Humidity 30    
Precipitation  
Precipitation 0.00 in 0.08 in 1.90 in (2007)
Month to date precipitation 2.67  
Year to date precipitation 36.82  
Sea Level Pressure  
Sea Level Pressure 30.26 in    
Wind  
Wind Speed 2 mph (West)    
Max Wind Speed 12 mph    
Max Gust Speed 17 mph    
Visibility 10 miles    
Events      
T = Trace of Precipitation, MM = Missing Value Source: NWS Daily Summary

Daily Weather History Graph

Daily Weather History Graph

Search for Another Location

Airport or City:

Trip Planner

Search our weather history database for the weather conditions in past years. The results will help you decide how hot, cold, wet, or windy it might be!

Date:

Astronomy

Oct. 26, 2013 Rise Set
Actual Time 7:31 AM EDT 6:30 PM EDT
Civil Twilight 7:06 AM EDT 6:55 PM EDT
Nautical Twilight 6:36 AM EDT 7:25 PM EDT
Astronomical Twilight 6:07 AM EDT 7:54 PM EDT
Moon No Moon Rise 1:44 PM EDT (10/26)
Length of Visible Light 11h 49m
Length of Day
10h 58m
Waning Gibbous, 53% of the Moon is Illuminated
Oct 26
Waning Gibbous
Oct 26
Last Quarter
Nov 3
New
Nov 10
First Quarter
Nov 17
Full

Hourly Weather History & Observations

Time (EDT) Temp. Windchill Dew Point Humidity Pressure Visibility Wind Dir Wind Speed Gust Speed Precip Events Conditions
12:15 AM 37.4 °F - 33.8 °F 87% 30.37 in 10.0 mi Calm Calm - N/A   Clear
12:35 AM 37.4 °F - 35.6 °F 93% 30.36 in 10.0 mi Calm Calm - N/A   Clear
12:55 AM 35.6 °F 32.8 °F 33.8 °F 93% 30.36 in 10.0 mi NNW 3.5 mph - N/A   Clear
1:15 AM 37.4 °F - 33.8 °F 87% 30.36 in 10.0 mi Calm Calm - N/A   Clear
1:35 AM 35.6 °F - 32.0 °F 87% 30.35 in 10.0 mi Calm Calm - N/A   Clear
1:55 AM 35.6 °F 32.8 °F 32.0 °F 87% 30.35 in 10.0 mi North 3.5 mph - N/A   Clear
2:15 AM 35.6 °F 32.8 °F 32.0 °F 87% 30.35 in 10.0 mi North 3.5 mph - N/A   Clear
2:35 AM 35.6 °F 32.8 °F 32.0 °F 87% 30.34 in 10.0 mi North 3.5 mph - N/A   Clear
2:55 AM 35.6 °F - 32.0 °F 87% 30.34 in 10.0 mi Calm Calm - N/A   Clear
3:15 AM 35.6 °F 32.8 °F 32.0 °F 87% 30.34 in 10.0 mi North 3.5 mph - N/A   Clear
3:35 AM 35.6 °F 32.8 °F 32.0 °F 87% 30.33 in 10.0 mi NNE 3.5 mph - N/A   Clear
3:55 AM 33.8 °F - 30.2 °F 87% 30.33 in 10.0 mi Calm Calm - N/A   Clear
4:15 AM 33.8 °F - 32.0 °F 93% 30.33 in 10.0 mi Calm Calm - N/A   Clear
4:35 AM 33.8 °F - 32.0 °F 93% 30.33 in 10.0 mi Calm Calm - N/A   Clear
4:55 AM 33.8 °F - 32.0 °F 93% 30.32 in 10.0 mi Calm Calm - N/A   Clear
5:15 AM 33.8 °F - 32.0 °F 93% 30.32 in 10.0 mi Calm Calm - N/A   Clear
5:35 AM 33.8 °F - 32.0 °F 93% 30.33 in 10.0 mi Calm Calm - N/A   Clear
5:55 AM 33.8 °F - 32.0 °F 93% 30.33 in 10.0 mi Calm Calm - N/A   Clear
6:15 AM 33.8 °F - 32.0 °F 93% 30.33 in 10.0 mi Calm Calm - N/A   Clear
6:35 AM 33.8 °F - 32.0 °F 93% 30.34 in 10.0 mi Calm Calm - N/A   Clear
6:55 AM 32.0 °F - 32.0 °F 100% 30.34 in 10.0 mi Calm Calm - N/A   Clear
7:15 AM 32.0 °F - 32.0 °F 100% 30.34 in 10.0 mi Calm Calm - N/A   Clear
7:35 AM 32.0 °F - 32.0 °F 100% 30.34 in 10.0 mi Calm Calm - N/A   Clear
7:55 AM 32.0 °F - 32.0 °F 100% 30.34 in 10.0 mi Calm Calm - N/A   Clear
8:15 AM 32.0 °F - 32.0 °F 100% 30.34 in 10.0 mi Calm Calm - N/A   Clear
8:35 AM 33.8 °F - 32.0 °F 93% 30.35 in 10.0 mi Calm Calm - N/A   Clear
8:55 AM 37.4 °F - 33.8 °F 87% 30.35 in 10.0 mi Calm Calm - N/A   Clear
9:15 AM 41.0 °F 39.0 °F 32.0 °F 70% 30.35 in 10.0 mi NNE 3.5 mph - N/A   Clear
9:35 AM 42.8 °F 40.1 °F 32.0 °F 66% 30.35 in 10.0 mi NNE 4.6 mph - N/A   Clear
9:55 AM 44.6 °F - 33.8 °F 66% 30.34 in 10.0 mi Calm Calm - N/A   Clear
10:15 AM 46.4 °F 45.2 °F 32.0 °F 57% 30.33 in 10.0 mi North 3.5 mph - N/A   Clear
10:35 AM 50.0 °F - 32.0 °F 50% 30.33 in 10.0 mi North 3.5 mph - N/A   Clear
10:55 AM 51.8 °F - 32.0 °F 47% 30.32 in 10.0 mi Calm Calm - N/A   Clear
11:15 AM 53.6 °F - 28.4 °F 38% 30.31 in 10.0 mi Calm Calm - N/A   Clear
11:35 AM 53.6 °F - 28.4 °F 38% 30.31 in 10.0 mi Calm Calm - N/A   Clear
11:55 AM 55.4 °F - 28.4 °F 36% 30.31 in 10.0 mi Calm Calm - N/A   Clear
12:15 PM 55.4 °F - 28.4 °F 36% 30.30 in 10.0 mi Calm Calm - N/A   Clear
12:35 PM 55.4 °F - 28.4 °F 36% 30.29 in 10.0 mi Calm Calm - N/A   Clear
12:55 PM 59.0 °F - 28.4 °F 31% 30.28 in 10.0 mi West 8.1 mph - N/A   Clear
1:15 PM 59.0 °F - 30.2 °F 34% 30.26 in 10.0 mi West 4.6 mph - N/A   Clear
1:35 PM 59.0 °F - 30.2 °F 34% 30.25 in 10.0 mi Calm Calm - N/A   Clear
1:55 PM 60.8 °F - 32.0 °F 34% 30.24 in 10.0 mi West 8.1 mph - N/A   Clear
2:15 PM 60.8 °F - 32.0 °F 34% 30.23 in 10.0 mi WSW 6.9 mph 16.1 mph N/A   Clear
2:35 PM 60.8 °F - 32.0 °F 34% 30.22 in 10.0 mi West 8.1 mph - N/A   Clear
2:55 PM 62.6 °F - 32.0 °F 32% 30.21 in 10.0 mi West 9.2 mph 17.3 mph N/A   Clear
3:15 PM 62.6 °F - 32.0 °F 32% 30.20 in 10.0 mi WSW 11.5 mph - N/A   Clear
3:35 PM 62.6 °F - 32.0 °F 32% 30.19 in 10.0 mi WNW 8.1 mph - N/A   Clear
3:55 PM 62.6 °F - 32.0 °F 32% 30.18 in 10.0 mi West 9.2 mph - N/A   Clear
4:15 PM 62.6 °F - 32.0 °F 32% 30.17 in 10.0 mi WSW 6.9 mph - N/A   Clear
4:35 PM 62.6 °F - 30.2 °F 30% 30.17 in 10.0 mi West 9.2 mph - N/A   Clear
4:55 PM 62.6 °F - 32.0 °F 32% 30.16 in 10.0 mi SW 8.1 mph - N/A   Clear
5:15 PM 62.6 °F - 32.0 °F 32% 30.15 in 10.0 mi SSW 8.1 mph - N/A   Clear
5:35 PM 60.8 °F - 32.0 °F 34% 30.15 in 10.0 mi SW 6.9 mph - N/A   Clear
5:55 PM 60.8 °F - 32.0 °F 34% 30.15 in 10.0 mi WSW 6.9 mph - N/A   Clear
6:15 PM 59.0 °F - 32.0 °F 36% 30.14 in 10.0 mi SW 4.6 mph - N/A   Clear
6:35 PM 55.4 °F - 32.0 °F 41% 30.14 in 10.0 mi SW 4.6 mph - N/A   Clear
6:55 PM 55.4 °F - 33.8 °F 44% 30.15 in 10.0 mi WSW 3.5 mph - N/A   Clear
7:15 PM 50.0 °F - 35.6 °F 58% 30.15 in 10.0 mi Calm Calm - N/A   Clear
7:35 PM 48.2 °F - 35.6 °F 62% 30.15 in 10.0 mi Calm Calm - N/A   Clear
7:55 PM 48.2 °F - 35.6 °F 62% 30.15 in 10.0 mi Calm Calm - N/A   Clear
8:15 PM 46.4 °F 45.2 °F 35.6 °F 66% 30.15 in 10.0 mi SW 3.5 mph - N/A   Clear
8:35 PM 46.4 °F - 35.6 °F 66% 30.15 in 10.0 mi Calm Calm - N/A   Clear
8:55 PM 44.6 °F - 35.6 °F 71% 30.15 in 10.0 mi Calm Calm - N/A   Clear
9:15 PM 44.6 °F - 37.4 °F 76% 30.14 in 10.0 mi Calm Calm - N/A   Clear
9:35 PM 44.6 °F - 35.6 °F 71% 30.14 in 10.0 mi Calm Calm - N/A   Clear
9:55 PM 44.6 °F - 37.4 °F 76% 30.14 in 10.0 mi Calm Calm - N/A   Clear
10:15 PM 42.8 °F - 35.6 °F 76% 30.14 in 10.0 mi Calm Calm - N/A   Clear
10:35 PM 42.8 °F - 35.6 °F 76% 30.15 in 10.0 mi Calm Calm - N/A   Clear
10:55 PM 42.8 °F - 37.4 °F 81% 30.15 in 10.0 mi Calm Calm - N/A   Clear
11:15 PM 42.8 °F 41.1 °F 37.4 °F 81% 30.15 in 10.0 mi South 3.5 mph - N/A   Clear
11:35 PM 42.8 °F - 37.4 °F 81% 30.15 in 10.0 mi Calm Calm - N/A   Clear
11:55 PM 42.8 °F - 37.4 °F 81% 30.15 in 10.0 mi Calm Calm - N/A   Clear